Location: Peterborough
(44.3091°N, 78.3197°W)
Time: 01:29:45
(UTC-04:00)

Vanguard 1 Rocket - Pass Details

Date: 26 March 2023
Orbit: 655 x 4220 km, 34.3° (Epoch: 02 June)

Event Time Altitude Azimuth Distance (km) Brightness Sun altitude
Rises 01:00:42 0° 248° (WSW) 8,297 12.2 -43.4°
Reaches altitude 10° 01:07:03 10° 245° (WSW) 6,990 11.7 -43.5°
Enters shadow 01:13:26 22° 240° (WSW) 5,590 11.1 -43.6°
Exits shadow 01:39:32 - 100° (E) 4,279 10.8 -43.4°
Sets 01:40:49 0° 98° (E) 4,621 11.0 -43.3°
